This is the latest recevied weather packets stored in our database for station/object KQ7A. If no packets are shown the sender has not sent any weather packets the latest 10 day(s).
| Time | Temp. | Humidity | Pressure | Rain* | Wind** | Luminosity | Snow |
|---|---|---|---|---|---|---|---|
| 1787879458 | 26.11° C | 29% | 1020.8 hPa | 0 mm | - | 74 W/m² | - |
| 1787879154 | 26.11° C | 30% | 1021.2 hPa | 0 mm | - | 85 W/m² | - |
| 1787878851 | 26.11° C | 30% | 1021.3 hPa | 0 mm | - | 89 W/m² | - |
| 1787878549 | 26.67° C | 25% | 1020.8 hPa | 0 mm | - | 95 W/m² | - |
| 1787878244 | 26.67° C | 26% | 1021.3 hPa | 0 mm | - | 101 W/m² | - |
| 1787877940 | 26.67° C | 25% | 1021.1 hPa | 0 mm | - | 109 W/m² | - |
| 1787877636 | 26.67° C | 26% | 1021.5 hPa | 0 mm | - | 132 W/m² | - |
| 1787877331 | 26.67° C | 26% | 1021.3 hPa | 0 mm | - | 134 W/m² | - |
| 1787877026 | 26.67° C | 28% | 1021.1 hPa | 0 mm | - | 119 W/m² | - |
| 1787876721 | 26.67° C | 27% | 1021.1 hPa | 0 mm | - | 115 W/m² | - |
| 1787876416 | 26.67° C | 29% | 1020.9 hPa | 0 mm | - | 121 W/m² | - |
| 1787876115 | 26.67° C | 28% | 1021.4 hPa | 0 mm | - | 126 W/m² | - |
| 1787875810 | 26.67° C | 29% | 1021.2 hPa | 0 mm | - | 124 W/m² | - |
| 1787875509 | 26.67° C | 28% | 1021.5 hPa | 0 mm | - | 131 W/m² | - |
| 1787875203 | 26.67° C | 31% | 1021.4 hPa | 0 mm | - | 142 W/m² | - |
| 1787874902 | 26.67° C | 28% | 1021.1 hPa | 0 mm | - | 138 W/m² | - |
| 1787874596 | 27.22° C | 28% | 1021.3 hPa | 0 mm | - | 143 W/m² | - |
| 1787874290 | 27.22° C | 30% | 1021.4 hPa | 0 mm | - | 158 W/m² | - |
| 1787873985 | 27.78° C | 31% | 1021.4 hPa | 0 mm | - | 179 W/m² | - |
| 1787873684 | 27.22° C | 26% | 1021.5 hPa | 0 mm | - | 177 W/m² | - |
| 1787873379 | 27.22° C | 29% | 1021.2 hPa | 0 mm | - | 156 W/m² | - |
| 1787873079 | 27.22° C | 28% | 1021.3 hPa | 0 mm | - | 153 W/m² | - |
| 1787872773 | 27.78° C | 29% | 1021.2 hPa | 0 mm | - | 170 W/m² | - |
| 1787872469 | 27.78° C | 30% | 1021.6 hPa | 0 mm | - | 169 W/m² | - |
| 1787872164 | 27.78° C | 27% | 1021.4 hPa | 0 mm | - | 170 W/m² | - |
* Rain latest hour (hover to see other rain measurements)
** Current wind speed in m/s (hover to see current wind gust speed)